Location: ??????????
(54.4061°N, 22.6114°E)
Time: 06:52:40
(UTC+00:00)

STARLINK-59 - Pass Details

Date: 23 October 2019
Orbit: 548 x 551 km, 53.0° (Epoch: 12 November)

Event Time Altitude Azimuth Distance (km) Brightness Sun altitude
Rises 17:15:45 0° 278° (W) 2,721 8.9 -18.3°
Reaches altitude 10° 17:18:00 10° 275° (W) 1,826 7.5 -18.6°
Maximum altitude 17:22:06 60° 195° (SSW) 633 3.9 -19.2°
Enters shadow 17:23:10 43° 139° (SE) 777 4.0 -19.4°
